Regional Weather Roundup
Issued by NWS

Home | Current Version | Previous Version | Graphics & Text | Print | Product List | Glossary On
Versions: 1 2 3 4 5 6 7 8 9 10 11 12 13 14 15 16 17 18 19 20 21 22 23 24 25 26 27 28 29 30 31 32 33 34 35 36 37 38 39 40 41 42 43 44 45 46 47 48 49 50
000
ASUS43 KIND 270909
RWRIN

WEATHER ROUNDUP FOR INDIANA
NATIONAL WEATHER SERVICE INDIANAPOLIS IN
500 AM EDT WED AUG 27 2014

NOTE: "FAIR" INDICATES FEW OR NO CLOUDS BELOW 12,000 FEET WITH NO
SIGNIFICANT WEATHER AND/OR OBSTRUCTIONS TO VISIBILITY.

* - STATION DOES NOT REPORT WEATHER SUCH AS PRECIPITATION OR FOG.

+ - STATION NOT QUALITY CONTROLLED BY THE NATIONAL WEATHER SERVICE.
    USE DATA WITH CAUTION...ESPECIALLY DEWPOINT AND RELATIVE
    HUMIDITY OBSERVATIONS.

INZ001>003-010>013-019-020-271000-
NORTHWEST INDIANA

CITY           SKY/WX    TMP DP  RH WIND       PRES   REMARKS
GARY /AIRPORT/ CLOUDY    71  67  89 E5        30.12R
KNOX *+        CLOUDY    65  64  94 CALM      30.10S
LA PORTE +     MOCLDY    65  65 100 N3        30.12S
MICHIGAN CITY+ CLOUDY    63  63 100 CALM      30.12S FOG
MONTICELLO +   MOCLDY    69  69  99 CALM      30.08F FOG
RENSSELAER +   CLOUDY    70  70 100 NE5       30.10S FOG
VALPARAISO     CLOUDY    67  64  90 CALM      30.12R

$$

LMZ046-743>745-271000-
SOUTHERN LAKE MICHIGAN

STATION/POSITION TIME  TEMP WIND        PRES
                       AIR  DIR/SP/G
                 (UTC) (F)  (DEG/KT/KT) (MB)
MICHIGAN CITY    0900   68   50/  5/  6   N/A

$$

INZ004-005-014>016-021>024-271000-
NORTH CENTRAL INDIANA

CITY           SKY/WX    TMP DP  RH WIND       PRES   REMARKS
GOSHEN         PTCLDY    67  64  90 CALM      30.10S
LOGANSPORT +   PTCLDY    66  64  94 CALM      30.10S FOG
ROCHESTER +    CLOUDY    70  70 100 N5        30.10S FOG
SOUTH BEND     PTCLDY    66  64  93 N3        30.11S
WARSAW +       CLOUDY    68  68 100 N5        30.10F FOG

$$

INZ006>009-017-018-025>027-271000-
NORTHEAST INDIANA

CITY           SKY/WX    TMP DP  RH WIND       PRES   REMARKS
ANGOLA *+      CLEAR     66  57  72 CALM      30.10S
AUBURN +       CLOUDY    70  66  88 N3        30.10F FOG
FORT WAYNE     MOCLDY    70  68  93 CALM      30.10S
HUNTINGTON +   MOCLDY    69  69  99 CALM      30.09F THUNDER

$$

INZ028-029-035-036-043>045-051>053-271000-
WEST CENTRAL INDIANA

CITY           SKY/WX    TMP DP  RH WIND       PRES   REMARKS
GREENCASTLE +  MOCLDY    68  68 100 CALM      30.10S
LAFAYETTE      MOCLDY    65  65 100 CALM      30.08S
TERRE HAUTE    MOCLDY    69  67  93 CALM      30.08F

$$

INZ030>032-037>040-046>048-054>057-064-065-271000-
CENTRAL INDIANA

CITY           SKY/WX    TMP DP  RH WIND       PRES   REMARKS
CP ATTERBURY + MOCLDY    66  64  94 CALM      30.10S FOG
FRANKFORT +    MOCLDY   N/A N/A N/A CALM      30.10S
INDIANAPOLIS   CLOUDY    72  69  90 CALM      30.08S
-EAGLE CREEK   CLOUDY    72  67  84 CALM      30.09S
KOKOMO *+      MOCLDY    68  64  88 CALM      30.09S
MARION +       MOCLDY    67  66  97 NE3       30.10F
MT COMFORT *+  MOCLDY    68 N/A N/A CALM      30.10S
SHELBYVILLE    MOCLDY    70  67  90 CALM      30.09S FOG
ZIONSVILLE +   MOCLDY    68  65  90 CALM      30.10F FOG

$$

INZ033-034-041-042-049-050-058-059-271000-
EAST CENTRAL INDIANA

CITY           SKY/WX    TMP DP  RH WIND       PRES   REMARKS
MUNCIE         MOCLDY    70  68  93 CALM      30.09F

$$

INZ060-061-067>069-081>083-085>088-271000-
SOUTHWEST INDIANA

CITY           SKY/WX    TMP DP  RH WIND       PRES   REMARKS
EVANSVILLE     CLEAR     75  71  87 CALM      30.06F
WASHINGTON +   PTCLDY    70  70 100 CALM      30.06S FOG

$$

INZ062-063-066-070>080-084-089>092-271000-
SOUTH CENTRAL AND SOUTHEAST INDIANA

CITY           SKY/WX    TMP DP  RH WIND       PRES   REMARKS
BLOOMINGTON    PTCLDY    70  68  93 CALM      30.10R
SEYMOUR +      PTCLDY    70  63  78 CALM      30.08  HAZE

$$




USA.gov is the U.S. government's official web portal to all federal, state and local government web resources and services.